Location: Asheville, NC
(35.6000°N, 82.5500°W)
Time: 07:01:17
(UTC-05:00)

ISS - Pass Details

Date: 09 February 2018
Orbit: 403 x 407 km, 51.6° (Epoch: 20 February)

Event Time Altitude Azimuth Distance (km) Brightness Sun altitude
Rises 19:44:43 0° 318° (NW) 2,315 0.6 -20.5°
Reaches altitude 10° 19:46:53 10° 326° (NNW) 1,454 -0.7 -20.9°
Enters shadow 19:48:33 24° 345° (NNW) 869 -2.1 -21.3°
